Lincoln, CA

12:05 PM PST on January 19, 2018 (GMT -0800)
Lincoln Regional-Harder

Weather History for KLHM - May, 2014

Change the Weather History Date:

Friday, May 16, 2014

  Actual Average (KAUN) Record (KAUN)
Temperature  
Mean Temperature 75 °F -  
Max Temperature 91 °F 77 °F 95 °F (2008)
Min Temperature 59 °F 50 °F 39 °F (2011)
Cooling Degree Days 10    
Growing Degree Days 25 (Base 50)    
Moisture  
Dew Point 37 °F    
Average Humidity 30    
Maximum Humidity 63    
Minimum Humidity 8    
Precipitation  
Precipitation 0.00 in - - ()
Sea Level Pressure  
Sea Level Pressure 29.96 in    
Wind  
Wind Speed 7 mph (SSE)    
Max Wind Speed 13 mph    
Max Gust Speed 20 mph    
Visibility 10 miles    
Events      
Averages and records for this station are not official NWS values.
T = Trace of Precipitation, MM = Missing Value Source: NWS Daily Summary

Daily Weather History Graph

Daily Weather History Graph

Search for Another Location

Airport or City:

Trip Planner

Search our weather history database for the weather conditions in past years. The results will help you decide how hot, cold, wet, or windy it might be!

Date:

Astronomy

May. 16, 2014 Rise Set
Actual Time 5:51 AM PDT 8:12 PM PDT
Civil Twilight 5:21 AM PDT 8:42 PM PDT
Nautical Twilight 4:44 AM PDT 9:19 PM PDT
Astronomical Twilight 4:03 AM PDT 10:00 PM PDT
Moon 10:24 PM PDT (5/16) 7:38 AM PDT (5/16)
Length of Visible Light 15h 20m
Length of Day
14h 20m
Waning Gibbous, 95% of the Moon is Illuminated
May 16
Waning Gibbous
May 21
Last Quarter
May 28
New
Jun 5
First Quarter
Jun 12
Full

Hourly Weather History & Observations

Time (PDT) Temp. Dew Point Humidity Pressure Visibility Wind Dir Wind Speed Gust Speed Precip Events Conditions
12:15 AM 64.4 °F 44.6 °F 49% 30.01 in 10.0 mi East 6.9 mph - N/A   Clear
12:35 AM 68.0 °F 44.6 °F 43% 30.01 in 10.0 mi ESE 5.8 mph - N/A   Clear
12:55 AM 68.0 °F 42.8 °F 40% 30.01 in 10.0 mi SE 3.5 mph - N/A   Clear
1:15 AM 68.0 °F 42.8 °F 40% 30.01 in 10.0 mi SE 4.6 mph - N/A   Clear
1:35 AM 62.6 °F 42.8 °F 48% 30.01 in 10.0 mi SSE 4.6 mph - N/A   Clear
1:55 AM 66.2 °F 42.8 °F 43% 30.00 in 10.0 mi ESE 4.6 mph - N/A   Clear
2:15 AM 64.4 °F 44.6 °F 49% 29.99 in 10.0 mi SE 4.6 mph - N/A   Clear
2:35 AM 62.6 °F 44.6 °F 52% 29.99 in 10.0 mi SSE 5.8 mph - N/A   Clear
2:55 AM 62.6 °F 44.6 °F 52% 29.99 in 10.0 mi SE 4.6 mph - N/A   Clear
3:15 AM 60.8 °F 44.6 °F 55% 29.98 in 10.0 mi SSE 8.1 mph - N/A   Clear
3:35 AM 60.8 °F 44.6 °F 55% 29.98 in 10.0 mi South 5.8 mph - N/A   Clear
3:55 AM 60.8 °F 44.6 °F 55% 29.98 in 10.0 mi South 5.8 mph - N/A   Clear
4:15 AM 60.8 °F 44.6 °F 55% 29.98 in 10.0 mi South 5.8 mph - N/A   Clear
4:35 AM 59.0 °F 46.4 °F 63% 29.98 in 10.0 mi South 6.9 mph - N/A   Clear
4:55 AM 59.0 °F 44.6 °F 59% 29.98 in 10.0 mi SSE 9.2 mph - N/A   Clear
5:15 AM 60.8 °F 44.6 °F 55% 29.98 in 10.0 mi SSE 8.1 mph - N/A   Clear
5:35 AM 60.8 °F 44.6 °F 55% 29.98 in 10.0 mi SSE 8.1 mph - N/A   Clear
5:55 AM 59.0 °F 44.6 °F 59% 29.98 in 10.0 mi SSE 6.9 mph - N/A   Clear
6:15 AM 60.8 °F 42.8 °F 52% 29.98 in 10.0 mi SSE 6.9 mph - N/A   Clear
6:35 AM 60.8 °F 41.0 °F 48% 29.98 in 10.0 mi SSE 6.9 mph - N/A   Clear
6:55 AM 62.6 °F 37.4 °F 39% 29.99 in 10.0 mi SSE 8.1 mph - N/A   Clear
7:15 AM 64.4 °F 35.6 °F 34% 30.00 in 10.0 mi SSE 9.2 mph - N/A   Clear
7:35 AM 66.2 °F 33.8 °F 30% 30.00 in 10.0 mi SE 12.7 mph 16.1 mph N/A   Clear
7:55 AM 69.8 °F 33.8 °F 27% 29.99 in 10.0 mi SE 10.4 mph - N/A   Clear
8:15 AM 69.8 °F 32.0 °F 25% 30.00 in 10.0 mi SE 12.7 mph - N/A   Clear
8:35 AM 71.6 °F 33.8 °F 25% 30.01 in 10.0 mi SSE 10.4 mph - N/A   Clear
8:55 AM 71.6 °F 32.0 °F 23% 30.01 in 10.0 mi SE 12.7 mph - N/A   Clear
9:15 AM 73.4 °F 32.0 °F 22% 30.01 in 10.0 mi SE 10.4 mph - N/A   Clear
9:35 AM 77.0 °F 32.0 °F 19% 30.01 in 10.0 mi SE 10.4 mph - N/A   Clear
9:55 AM 78.8 °F 33.8 °F 20% 30.00 in 10.0 mi SE 11.5 mph - N/A   Clear
10:15 AM 78.8 °F 30.2 °F 17% 30.00 in 10.0 mi SSE 11.5 mph - N/A   Clear
10:35 AM 78.8 °F 32.0 °F 18% 30.00 in 10.0 mi SSE 11.5 mph 16.1 mph N/A   Clear
10:55 AM 80.6 °F 32.0 °F 17% 30.01 in 10.0 mi SSE 8.1 mph - N/A   Clear
11:15 AM 80.6 °F 32.0 °F 17% 30.00 in 10.0 mi South 8.1 mph - N/A   Clear
11:35 AM 82.4 °F 30.2 °F 15% 30.00 in 10.0 mi SSE 8.1 mph - N/A   Clear
11:55 AM 82.4 °F 30.2 °F 15% 30.00 in 10.0 mi South 4.6 mph - N/A   Clear
12:15 PM 84.2 °F 30.2 °F 14% 29.99 in 10.0 mi South 10.4 mph - N/A   Clear
12:35 PM 84.2 °F 28.4 °F 13% 29.99 in 10.0 mi South 8.1 mph - N/A   Clear
12:55 PM 86.0 °F 30.2 °F 13% 29.98 in 10.0 mi South 8.1 mph - N/A   Clear
1:15 PM 87.8 °F 30.2 °F 13% 29.98 in 10.0 mi SSW 5.8 mph - N/A   Clear
1:35 PM 87.8 °F 26.6 °F 11% 29.97 in 10.0 mi South 8.1 mph - N/A   Clear
1:55 PM 87.8 °F 30.2 °F 13% 29.97 in 10.0 mi SSW 6.9 mph - N/A   Clear
2:15 PM 87.8 °F 30.2 °F 13% 29.96 in 10.0 mi SSW 10.4 mph - N/A   Clear
2:35 PM 89.6 °F 28.4 °F 11% 29.96 in 10.0 mi SSW 6.9 mph - N/A   Clear
2:55 PM 89.6 °F 28.4 °F 11% 29.96 in 10.0 mi SSW 6.9 mph - N/A   Clear
3:15 PM 91.4 °F 24.8 °F 9% 29.95 in 10.0 mi South 4.6 mph - N/A   Clear
3:35 PM 89.6 °F 21.2 °F 8% 29.94 in 10.0 mi Calm Calm - N/A   Clear
3:55 PM 91.4 °F 23.0 °F 8% 29.93 in 10.0 mi South 4.6 mph - N/A   Clear
4:15 PM 91.4 °F 24.8 °F 9% 29.92 in 10.0 mi SW 8.1 mph - N/A   Clear
4:35 PM 91.4 °F 24.8 °F 9% 29.91 in 10.0 mi SSE 4.6 mph - N/A   Clear
4:55 PM 91.4 °F 28.4 °F 10% 29.91 in 10.0 mi ESE 5.8 mph - N/A   Clear
5:15 PM 91.4 °F 28.4 °F 10% 29.91 in 10.0 mi SSE 6.9 mph - N/A   Clear
5:35 PM 91.4 °F 30.2 °F 11% 29.90 in 10.0 mi South 9.2 mph - N/A   Clear
5:55 PM 91.4 °F 30.2 °F 11% 29.89 in 10.0 mi SE 5.8 mph - N/A   Clear
6:15 PM 89.6 °F 32.0 °F 13% 29.88 in 10.0 mi South 9.2 mph - N/A   Clear
6:35 PM 89.6 °F 33.8 °F 14% 29.88 in 10.0 mi South 8.1 mph - N/A   Clear
6:55 PM 87.8 °F 32.0 °F 14% 29.88 in 10.0 mi South 8.1 mph - N/A   Clear
7:15 PM 86.0 °F 37.4 °F 18% 29.88 in 10.0 mi South 8.1 mph - N/A   Clear
7:35 PM 82.4 °F 41.0 °F 23% 29.88 in 10.0 mi South 5.8 mph - N/A   Clear
7:55 PM 78.8 °F 42.8 °F 28% 29.88 in 10.0 mi SSE 8.1 mph - N/A   Clear
8:15 PM 78.8 °F 44.6 °F 30% 29.89 in 10.0 mi South 9.2 mph - N/A   Clear
8:35 PM 75.2 °F 44.6 °F 34% 29.89 in 10.0 mi South 9.2 mph - N/A   Clear
8:55 PM 73.4 °F 46.4 °F 38% 29.89 in 10.0 mi SSE 9.2 mph - N/A   Clear
9:15 PM 71.6 °F 46.4 °F 41% 29.90 in 10.0 mi SSE 10.4 mph - N/A   Clear
9:35 PM 69.8 °F 46.4 °F 43% 29.91 in 10.0 mi SSE 8.1 mph - N/A   Clear
9:55 PM 69.8 °F 46.4 °F 43% 29.91 in 10.0 mi SSE 8.1 mph - N/A   Clear
10:15 PM 68.0 °F 44.6 °F 43% 29.91 in 10.0 mi SSE 6.9 mph - N/A   Clear
10:35 PM 68.0 °F 44.6 °F 43% 29.92 in 10.0 mi SSE 8.1 mph - N/A   Clear
10:55 PM 68.0 °F 44.6 °F 43% 29.92 in 10.0 mi SE 9.2 mph - N/A   Clear
11:15 PM 68.0 °F 42.8 °F 40% 29.91 in 10.0 mi SE 10.4 mph - N/A   Clear
11:55 PM 68.0 °F 41.0 °F 37% 29.91 in 10.0 mi SE 11.5 mph 19.6 mph N/A   Clear